Location: Castelnau
(43.6639°N, 0.8431°W)
Time: 21:39:10
(UTC+00:00)

Cosmos 1633 Rocket - Pass Details

Date: 13 January 2026
Orbit: 600 x 616 km, 82.5° (Epoch: 10 February)

Event Time Altitude Azimuth Distance (km) Brightness Sun altitude
Rises 06:47:56 0° 185° (S) 2,860 6.7 -8.5°
Reaches altitude 10° 06:50:08 10° 185° (S) 1,958 5.9 -8.1°
Maximum altitude 06:54:29 85° 99° (E) 616 3.1 -7.4°
Drops below altitude 10° 06:58:50 10° 9° (N) 1,964 5.5 -6.7°
Sets 07:01:03 0° 9° (N) 2,869 6.3 -6.3°
